Weather History for KGHW - April, 2013

Change the Weather History Date:

Friday, April 19, 2013

  Actual Average Record
Temperature  
Mean Temperature 27 °F -  
Max Temperature 33 °F 59 °F 86 °F (1987)
Min Temperature 21 °F 35 °F 18 °F (1988)
Degree Days  
Heating Degree Days 38    
Moisture  
Dew Point 22 °F    
Average Humidity 74    
Maximum Humidity 93    
Minimum Humidity 52    
Precipitation  
Precipitation 0.00 in - - ()
Sea Level Pressure  
Sea Level Pressure 29.78 in    
Wind  
Wind Speed 18 mph (NW)    
Max Wind Speed 24 mph    
Max Gust Speed 31 mph    
Visibility 9 miles    
Events Snow    
Averages and records for this station are not official NWS values.
T = Trace of Precipitation, MM = Missing Value Source: NWS Daily Summary

Daily Weather History Graph

Daily Weather History Graph

Search for Another Location

Airport or City:

Trip Planner

Search our weather history database for the weather conditions in past years. The results will help you decide how hot, cold, wet, or windy it might be!

Date:

Astronomy

Apr. 19, 2013 Rise Set
Actual Time 6:28 AM CDT 8:13 PM CDT
Civil Twilight 5:56 AM CDT 8:44 PM CDT
Nautical Twilight 5:18 AM CDT 9:23 PM CDT
Astronomical Twilight 4:36 AM CDT 10:05 PM CDT
Moon 1:40 PM CDT (4/19) 3:03 AM CDT (4/19)
Length of Visible Light 14h 48m
Length of Day
13h 45m
First Quarter, 62% of the Moon is Illuminated
Apr 19
First Quarter
Apr 25
Full
May 2
Last Quarter
May 9
New
May 17
First Quarter

Hourly Weather History & Observations

Time (CDT) Temp. Windchill Dew Point Humidity Pressure Visibility Wind Dir Wind Speed Gust Speed Precip Events Conditions
12:14 AM 30.2 °F 17.8 °F 28.4 °F 93% 29.67 in 2.0 mi NW 19.6 mph 27.6 mph N/A Snow Light Snow
12:33 AM 30.2 °F 17.4 °F 28.4 °F 93% 29.66 in 2.5 mi NW 20.7 mph 27.6 mph N/A Snow Light Snow
12:53 AM 30.2 °F 16.5 °F 28.4 °F 93% 29.66 in 2.5 mi NNW 24.2 mph 28.8 mph N/A Snow Light Snow
1:13 AM 30.2 °F 17.1 °F 28.4 °F 93% 29.65 in 3.0 mi NNW 21.9 mph 29.9 mph N/A Snow Light Snow
1:33 AM 30.2 °F 16.8 °F 26.6 °F 86% 29.65 in 3.0 mi NNW 23.0 mph 31.1 mph N/A Snow Light Snow
1:53 AM 30.2 °F 17.8 °F 26.6 °F 86% 29.65 in 7.0 mi NW 19.6 mph 25.3 mph N/A   Scattered Clouds
2:13 AM 30.2 °F 17.4 °F 26.6 °F 86% 29.64 in 5.0 mi NNW 20.7 mph - N/A Snow Light Snow
2:33 AM 28.4 °F 17.5 °F 26.6 °F 93% 29.65 in 7.0 mi NW 13.8 mph - N/A   Overcast
2:54 AM 28.4 °F 16.2 °F 24.8 °F 86% 29.64 in 10.0 mi NW 17.3 mph - N/A   Overcast
3:13 AM 28.4 °F 16.6 °F 24.8 °F 86% 29.64 in 10.0 mi NW 16.1 mph 20.7 mph N/A   Overcast
3:33 AM 28.4 °F 16.2 °F 24.8 °F 86% 29.64 in 10.0 mi NW 17.3 mph - N/A   Overcast
3:54 AM 28.4 °F 16.2 °F 24.8 °F 86% 29.64 in 10.0 mi NW 17.3 mph 23.0 mph N/A   Scattered Clouds
4:13 AM 28.4 °F 15.4 °F 23.0 °F 80% 29.64 in 10.0 mi NW 19.6 mph 24.2 mph N/A   Scattered Clouds
4:33 AM 28.4 °F 15.8 °F 24.8 °F 86% 29.64 in 10.0 mi NW 18.4 mph 25.3 mph N/A   Mostly Cloudy
4:54 AM 28.4 °F 15.4 °F 24.8 °F 86% 29.64 in 10.0 mi NW 19.6 mph 25.3 mph N/A   Overcast
5:13 AM 28.4 °F 16.2 °F 24.8 °F 86% 29.65 in 10.0 mi NW 17.3 mph - N/A   Overcast
5:33 AM 28.4 °F 16.6 °F 23.0 °F 80% 29.65 in 10.0 mi NW 16.1 mph 21.9 mph N/A   Overcast
5:54 AM 26.6 °F 14.3 °F 23.0 °F 86% 29.66 in 10.0 mi NW 16.1 mph - N/A   Overcast
6:13 AM 26.6 °F 14.3 °F 21.2 °F 80% 29.66 in 10.0 mi NW 16.1 mph - N/A   Scattered Clouds
6:33 AM 26.6 °F 14.3 °F 21.2 °F 80% 29.67 in 10.0 mi NW 16.1 mph - N/A   Clear
6:54 AM 26.6 °F 14.3 °F 21.2 °F 80% 29.67 in 10.0 mi NW 16.1 mph - N/A   Clear
7:13 AM 26.6 °F 14.7 °F 21.2 °F 80% 29.68 in 10.0 mi NW 15.0 mph - N/A   Clear
7:33 AM 26.6 °F 15.2 °F 21.2 °F 80% 29.68 in 10.0 mi NW 13.8 mph - N/A   Clear
7:53 AM 26.6 °F 15.2 °F 21.2 °F 80% 29.69 in 10.0 mi NW 13.8 mph - N/A   Clear
8:13 AM 26.6 °F 14.3 °F 21.2 °F 80% 29.69 in 10.0 mi NW 16.1 mph - N/A   Clear
8:33 AM 28.4 °F 17.0 °F 21.2 °F 74% 29.70 in 10.0 mi NW 15.0 mph - N/A   Clear
8:53 AM 28.4 °F 17.0 °F 21.2 °F 74% 29.70 in 10.0 mi NW 15.0 mph 21.9 mph N/A   Clear
9:13 AM 28.4 °F 17.5 °F 21.2 °F 74% 29.71 in 10.0 mi NW 13.8 mph - N/A   Clear
9:33 AM 28.4 °F 17.5 °F 21.2 °F 74% 29.71 in 10.0 mi NW 13.8 mph - N/A   Mostly Cloudy
9:53 AM 30.2 °F 19.3 °F 23.0 °F 75% 29.72 in 10.0 mi NW 15.0 mph - N/A   Overcast
10:33 AM 32.0 °F 21.6 °F 23.0 °F 69% 29.73 in 10.0 mi NNW 15.0 mph - N/A   Overcast
10:53 AM 33.8 °F 22.5 °F 21.2 °F 60% 29.73 in 10.0 mi North 19.6 mph 25.3 mph N/A   Overcast
11:13 AM 33.8 °F 22.8 °F 23.0 °F 65% 29.74 in 10.0 mi NW 18.4 mph 23.0 mph N/A   Overcast
11:33 AM 32.0 °F 21.6 °F 23.0 °F 69% 29.75 in 10.0 mi NW 15.0 mph - N/A   Mostly Cloudy
11:53 AM 33.8 °F 23.9 °F 24.8 °F 70% 29.76 in 10.0 mi NW 15.0 mph 21.9 mph N/A   Scattered Clouds
12:13 PM 33.8 °F 23.2 °F 24.8 °F 70% 29.76 in 10.0 mi NW 17.3 mph 21.9 mph N/A   Scattered Clouds
12:33 PM 33.8 °F 22.8 °F 24.8 °F 70% 29.77 in 10.0 mi NW 18.4 mph 25.3 mph N/A   Mostly Cloudy
12:53 PM 33.8 °F 22.8 °F 23.0 °F 65% 29.78 in 10.0 mi NW 18.4 mph - N/A   Mostly Cloudy
1:13 PM 33.8 °F 22.5 °F 23.0 °F 65% 29.79 in 10.0 mi NW 19.6 mph 27.6 mph N/A   Scattered Clouds
1:34 PM 33.8 °F 22.8 °F 23.0 °F 65% 29.79 in 10.0 mi NW 18.4 mph - N/A   Clear
1:53 PM 33.8 °F 22.5 °F 21.2 °F 60% 29.80 in 10.0 mi NW 19.6 mph 25.3 mph N/A   Clear
2:13 PM 33.8 °F 22.8 °F 21.2 °F 60% 29.81 in 10.0 mi NW 18.4 mph 24.2 mph N/A   Clear
2:34 PM 33.8 °F 23.2 °F 23.0 °F 65% 29.82 in 10.0 mi NW 17.3 mph - N/A   Clear
2:53 PM 33.8 °F 23.2 °F 21.2 °F 60% 29.82 in 10.0 mi NW 17.3 mph 25.3 mph N/A   Clear
3:13 PM 33.8 °F 22.5 °F 23.0 °F 65% 29.83 in 10.0 mi NW 19.6 mph 24.2 mph N/A   Clear
3:34 PM 33.8 °F 21.3 °F 21.2 °F 60% 29.84 in 10.0 mi NW 24.2 mph 28.8 mph N/A   Clear
3:53 PM 33.8 °F 21.9 °F 21.2 °F 60% 29.84 in 10.0 mi WNW 21.9 mph 27.6 mph N/A   Clear
4:13 PM 33.8 °F 22.2 °F 21.2 °F 60% 29.85 in 10.0 mi NW 20.7 mph 25.3 mph N/A   Clear
4:34 PM 33.8 °F 21.6 °F 21.2 °F 60% 29.86 in 10.0 mi WNW 23.0 mph 27.6 mph N/A   Clear
4:53 PM 33.8 °F 22.2 °F 21.2 °F 60% 29.87 in 10.0 mi NW 20.7 mph 25.3 mph N/A   Clear
5:13 PM 33.8 °F 23.2 °F 19.4 °F 56% 29.87 in 10.0 mi NW 17.3 mph - N/A   Clear
5:34 PM 33.8 °F 23.2 °F 19.4 °F 56% 29.88 in 10.0 mi NW 17.3 mph - N/A   Clear
5:53 PM 33.8 °F 23.5 °F 19.4 °F 56% 29.89 in 10.0 mi NW 16.1 mph 25.3 mph N/A   Clear
6:13 PM 33.8 °F 23.2 °F 17.6 °F 52% 29.90 in 10.0 mi NW 17.3 mph - N/A   Clear
6:33 PM 32.0 °F 20.8 °F 17.6 °F 55% 29.91 in 10.0 mi NW 17.3 mph 23.0 mph N/A   Clear
6:53 PM 30.2 °F 20.2 °F 19.4 °F 64% 29.92 in 10.0 mi NW 12.7 mph - N/A   Clear
7:13 PM 30.2 °F 18.9 °F 17.6 °F 60% 29.92 in 10.0 mi NW 16.1 mph 19.6 mph N/A   Clear
7:33 PM 28.4 °F 18.0 °F 19.4 °F 69% 29.93 in 10.0 mi NW 12.7 mph - N/A   Clear
7:53 PM 28.4 °F 17.5 °F 21.2 °F 74% 29.94 in 10.0 mi NW 13.8 mph - N/A   Clear
8:13 PM 26.6 °F 15.7 °F 19.4 °F 74% 29.95 in 10.0 mi NW 12.7 mph - N/A   Clear
8:33 PM 26.6 °F 15.2 °F 19.4 °F 74% 29.95 in 10.0 mi NW 13.8 mph - N/A   Clear
8:53 PM 26.6 °F 15.7 °F 19.4 °F 74% 29.97 in 10.0 mi WNW 12.7 mph - N/A   Clear
9:13 PM 26.6 °F 14.7 °F 19.4 °F 74% 29.98 in 10.0 mi WNW 15.0 mph - N/A   Clear
9:33 PM 26.6 °F 15.2 °F 19.4 °F 74% 29.98 in 10.0 mi WNW 13.8 mph - N/A   Clear
9:53 PM 26.6 °F 14.7 °F 19.4 °F 74% 29.99 in 10.0 mi WNW 15.0 mph - N/A   Clear
10:12 PM 24.8 °F 13.4 °F 19.4 °F 80% 29.99 in 10.0 mi NW 12.7 mph - N/A   Clear
10:33 PM 23.0 °F 11.7 °F 19.4 °F 86% 30.00 in 10.0 mi NW 11.5 mph - N/A   Clear
10:54 PM 23.0 °F 13.1 °F 19.4 °F 86% 30.01 in 10.0 mi NW 9.2 mph - N/A   Clear
11:13 PM 21.2 °F 11.7 °F 17.6 °F 86% 30.01 in 10.0 mi NW 8.1 mph - N/A   Clear
11:19 PM 21.2 °F 11.7 °F 17.6 °F 86% 30.01 in 10.0 mi NW 8.1 mph - N/A   Clear